Printer-friendly version

IAU Minor Planet Center

Minor Planet Center

(173) Ino

Orbital Elements

The following orbital elements are taken from MPC 27289:
  (173) Ino
Epoch 2000 Feb. 26.0 TT = JDT 2451600.5                 Goffin
M 316.04643              (2000.0)            P               Q
n   0.21699333     Peri.  228.52321     +0.94456237     -0.30219289
a   2.7426588      Node   148.43091     +0.32274287     +0.92640366
e   0.2071754      Incl.   14.19492     -0.06032380     +0.22462351
P   4.54           H    7.66          G   0.01           U   0
From 384 observations at 66 oppositions, 1877-1995, mean residual 0".94.
An explanation of the orbital elements is available.

These orbital elements are also available in forms suitable for loading into a number of popular planetarium-type software programs.


Ephemeris

The following ephemeris is at intervals of five days. A daily ephemeris covering the same time interval is also available.

Date    TT    R. A. (2000) Decl.     Delta      r     Elong.  Phase     V
 
2000 08 14    02 12.56   +01 00.1    1.619    2.181   109.8    25.9    11.8
2000 08 19    02 17.10   +00 31.7    1.568    2.179   113.5    25.2    11.7
2000 08 24    02 21.06   -00 01.9    1.519    2.178   117.3    24.4    11.6
2000 08 29    02 24.39   -00 40.6    1.473    2.176   121.3    23.4    11.5
2000 09 03    02 27.05   -01 24.2    1.430    2.175   125.4    22.2    11.4
2000 09 08    02 29.00   -02 12.3    1.390    2.175   129.6    20.9    11.3
2000 09 13    02 30.22   -03 04.3    1.353    2.174   133.8    19.5    11.2
2000 09 18    02 30.68   -03 59.5    1.320    2.174   138.1    18.0    11.1
2000 09 23    02 30.38   -04 57.0    1.292    2.175   142.4    16.4    11.0
2000 09 28    02 29.32   -05 55.6    1.268    2.175   146.5    14.7    10.8
2000 10 03    02 27.57   -06 53.9    1.250    2.176   150.4    13.1    10.7
2000 10 08    02 25.19   -07 50.5    1.236    2.178   153.7    11.7    10.7
2000 10 13    02 22.28   -08 43.6    1.229    2.179   156.2    10.6    10.6
2000 10 18    02 18.97   -09 31.9    1.227    2.181   157.6    10.0    10.6
2000 10 23    02 15.39   -10 13.8    1.231    2.183   157.5    10.0    10.6
2000 10 28    02 11.69   -10 48.3    1.240    2.186   156.0    10.6    10.6
2000 11 02    02 08.06   -11 14.4    1.256    2.189   153.4    11.7    10.7
2000 11 07    02 04.64   -11 31.4    1.277    2.192   150.0    13.1    10.8
2000 11 12    02 01.57   -11 39.4    1.303    2.195   146.1    14.5    10.9
2000 11 17    01 58.96   -11 38.5    1.334    2.199   142.0    16.1    11.0
2000 11 22    01 56.91   -11 29.0    1.370    2.203   137.7    17.6    11.2
2000 11 27    01 55.49   -11 11.6    1.410    2.208   133.4    19.0    11.3
2000 12 02    01 54.73   -10 46.9    1.455    2.212   129.1    20.2    11.4
2000 12 07    01 54.67   -10 15.7    1.502    2.217   124.8    21.4    11.5
2000 12 12    01 55.30   -09 38.9    1.553    2.223   120.7    22.4    11.6
2000 12 17    01 56.59   -08 57.3    1.606    2.228   116.6    23.3    11.7
2000 12 22    01 58.53   -08 11.6    1.662    2.234   112.7    24.0    11.9

Back to Bright Minor Planets

Astronomical Headlines Index


Valid HTML 4.01!